GOES
NORAD ID: 23051
Int'l Code: 1994-022A
Perigee: 36,174.2 km
Apogee: 36,189.1 km
Inclination: 9.0 °
Period: 1,456.0 minutes
Semi major axis: 42552 km
Launch date: April 13, 1994
Source: United States (US)
Two Line Element Set (TLE):
1 23051U 94022A 13144.19960334 -.00000080 00000-0 10000-3 0 5704
2 23051 009.0197 054.8775 0001750 250.8004 109.0366 00.98903792 76934
Source:
NASA's NSSDC Master Catalog entry for GOES 8